sat.trackr.live / text

‹ back to catalog

CONNECTA IOT-14

NORAD 67401 · 2026-004AQ

PAYLOAD ACTIVE UNKNOWN

§ Identity

Operator
Country
TURK
Launch date
2026-01-11
Launch site
AFWTR
Launch vehicle
Mass (kg)
RCS (m²)

External: N2YO · Heavens-Above · Gunter

§ Orbital elements

Epoch: 2026-05-24T22:39:14.800320Z

Period
94.84 min
Inclination
97.4508°
Eccentricity
0.0011431
Mean motion
15.18360947 rev/d
Perigee alt
502.9 km
Apogee alt
518.7 km
Semi-major
6,888.9 km
B*
1.4051e-4
RAAN
144.3141°
Arg perigee
66.1248°
Mean anomaly
294.1183°
Rev number
2,023

§ Raw data

CONNECTA IOT-141 67401U 26004AQ  26144.94392130  .00002823  00000+0  14051-3 0  99962 67401  97.4508 144.3141 0011431  66.1248 294.1183 15.18360947 20237

JSON: /api/v1/satellites/67401 · /tle

For live sub-satellite position, see the globe view (requires WebGL).

§ Visibility from observer

Set your observer location to see the next 7 days of passes ≥ 10°. The values pass through the URL so the page stays shareable.

No JS? Fill the form by hand. The geolocation button needs JavaScript.